Year,Month,Day,Hour,Minute,Value (Times are PST for temperature in C)
2008,08,26,00,00,12.80
2008,08,26,00,01,12.70
2008,08,26,00,02,12.70
2008,08,26,00,03,12.70
2008,08,26,00,04,12.70
2008,08,26,00,05,12.70
2008,08,26,00,06,12.70
2008,08,26,00,07,12.70
2008,08,26,00,08,12.70
2008,08,26,00,09,12.70
2008,08,26,00,10,12.60
2008,08,26,00,11,12.60
2008,08,26,00,12,12.50
2008,08,26,00,13,12.40
2008,08,26,00,14,12.40
2008,08,26,00,15,12.30
2008,08,26,00,16,12.30
2008,08,26,00,17,12.20
2008,08,26,00,18,12.20
2008,08,26,00,19,12.10
2008,08,26,00,20,12.00
2008,08,26,00,21,11.90
2008,08,26,00,22,11.80
2008,08,26,00,23,11.80
2008,08,26,00,24,11.70
2008,08,26,00,25,11.60
2008,08,26,00,26,11.60
2008,08,26,00,27,11.60
2008,08,26,00,28,11.50
2008,08,26,00,29,11.50
2008,08,26,00,30,11.50
2008,08,26,00,31,11.50
2008,08,26,00,32,11.50
2008,08,26,00,33,11.50
2008,08,26,00,34,11.50
2008,08,26,00,35,11.50
2008,08,26,00,36,11.50
2008,08,26,00,37,11.50
2008,08,26,00,38,11.40
2008,08,26,00,39,11.40
2008,08,26,00,40,11.30
2008,08,26,00,41,11.20
2008,08,26,00,42,11.20
2008,08,26,00,43,11.20
2008,08,26,00,44,11.10
2008,08,26,00,45,11.10
2008,08,26,00,46,11.10
2008,08,26,00,47,11.10
2008,08,26,00,48,11.10
2008,08,26,00,49,11.10
2008,08,26,00,50,11.20
2008,08,26,00,51,11.20
2008,08,26,00,52,11.10
2008,08,26,00,53,11.10
2008,08,26,00,54,11.10
2008,08,26,00,55,11.10
2008,08,26,00,56,11.10
2008,08,26,00,57,11.00
2008,08,26,00,58,11.00
2008,08,26,00,59,10.90
2008,08,26,01,00,10.90
2008,08,26,01,01,10.80
2008,08,26,01,02,10.80
2008,08,26,01,03,10.80
2008,08,26,01,04,10.70
2008,08,26,01,05,10.70
2008,08,26,01,06,10.60
2008,08,26,01,07,10.60
2008,08,26,01,08,10.50
2008,08,26,01,09,10.40
2008,08,26,01,10,10.40
2008,08,26,01,11,10.30
2008,08,26,01,12,10.30
2008,08,26,01,13,10.20
2008,08,26,01,14,10.20
2008,08,26,01,15,10.20
2008,08,26,01,16,10.20
2008,08,26,01,17,10.20
2008,08,26,01,18,10.20
2008,08,26,01,19,10.20
2008,08,26,01,20,10.20
2008,08,26,01,21,10.20
2008,08,26,01,22,10.20
2008,08,26,01,23,10.20
2008,08,26,01,24,10.20
2008,08,26,01,25,10.20
2008,08,26,01,26,10.20
2008,08,26,01,27,10.20
2008,08,26,01,28,10.20
2008,08,26,01,29,10.20
2008,08,26,01,30,10.20
2008,08,26,01,31,10.20
2008,08,26,01,32,10.20
2008,08,26,01,33,10.20
2008,08,26,01,34,10.20
2008,08,26,01,35,10.20
2008,08,26,01,36,10.20
2008,08,26,01,37,10.20
2008,08,26,01,38,10.20
2008,08,26,01,39,10.10
2008,08,26,01,40,10.10
2008,08,26,01,41,10.10
2008,08,26,01,42,10.00
2008,08,26,01,43,10.00
2008,08,26,01,44,9.90
2008,08,26,01,45,9.90
2008,08,26,01,46,9.90
2008,08,26,01,47,9.90
2008,08,26,01,48,9.90
2008,08,26,01,49,9.90
2008,08,26,01,50,10.00
2008,08,26,01,51,10.00
2008,08,26,01,52,10.00
2008,08,26,01,53,10.00
2008,08,26,01,54,10.10
2008,08,26,01,55,10.10
2008,08,26,01,56,10.10
2008,08,26,01,57,10.20
2008,08,26,01,58,10.20
2008,08,26,01,59,10.20
2008,08,26,02,00,10.20
2008,08,26,02,01,10.30
2008,08,26,02,02,10.30
2008,08,26,02,03,10.20
2008,08,26,02,04,10.20
2008,08,26,02,05,10.20
2008,08,26,02,06,10.20
2008,08,26,02,07,10.20
2008,08,26,02,08,10.20
2008,08,26,02,09,10.20
2008,08,26,02,10,10.20
2008,08,26,02,11,10.20
2008,08,26,02,12,10.20
2008,08,26,02,13,10.30
2008,08,26,02,14,10.30
2008,08,26,02,15,10.30
2008,08,26,02,16,10.30
2008,08,26,02,17,10.40
2008,08,26,02,18,10.40
2008,08,26,02,19,10.40
2008,08,26,02,20,10.30
2008,08,26,02,21,10.30
2008,08,26,02,22,10.30
2008,08,26,02,23,10.30
2008,08,26,02,24,10.30
2008,08,26,02,25,10.30
2008,08,26,02,26,10.30
2008,08,26,02,27,10.30
2008,08,26,02,28,10.30
2008,08,26,02,29,10.30
2008,08,26,02,30,10.30
2008,08,26,02,31,10.30
2008,08,26,02,32,10.30
2008,08,26,02,33,10.30
2008,08,26,02,34,10.30
2008,08,26,02,35,10.30
2008,08,26,02,36,10.30
2008,08,26,02,37,10.30
2008,08,26,02,38,10.30
2008,08,26,02,39,10.20
2008,08,26,02,40,10.20
2008,08,26,02,41,10.20
2008,08,26,02,42,10.20
2008,08,26,02,43,10.10
2008,08,26,02,44,10.10
2008,08,26,02,45,10.10
2008,08,26,02,46,10.10
2008,08,26,02,47,10.10
2008,08,26,02,48,10.10
2008,08,26,02,49,10.10
2008,08,26,02,50,10.10
2008,08,26,02,51,10.10
2008,08,26,02,52,10.10
2008,08,26,02,53,10.10
2008,08,26,02,54,10.10
2008,08,26,02,55,10.10
2008,08,26,02,56,10.00
2008,08,26,02,57,10.00
2008,08,26,02,58,10.00
2008,08,26,02,59,10.00
2008,08,26,03,00,10.00
2008,08,26,03,01,10.00
2008,08,26,03,02,9.90
2008,08,26,03,03,9.90
2008,08,26,03,04,9.90
2008,08,26,03,05,9.90
2008,08,26,03,06,9.90
2008,08,26,03,07,9.80
2008,08,26,03,08,9.80
2008,08,26,03,09,9.80
2008,08,26,03,10,9.70
2008,08,26,03,11,9.70
2008,08,26,03,12,9.70
2008,08,26,03,13,9.70
2008,08,26,03,14,9.80
2008,08,26,03,15,9.80
2008,08,26,03,16,9.90
2008,08,26,03,17,9.90
2008,08,26,03,18,10.00
2008,08,26,03,19,10.00
2008,08,26,03,20,10.10
2008,08,26,03,21,10.10
2008,08,26,03,22,10.20
2008,08,26,03,23,10.30
2008,08,26,03,24,10.50
2008,08,26,03,25,10.70
2008,08,26,03,26,10.70
2008,08,26,03,27,10.80
2008,08,26,03,28,10.80
2008,08,26,03,29,10.70
2008,08,26,03,30,10.70
2008,08,26,03,31,10.70
2008,08,26,03,32,10.70
2008,08,26,03,33,10.80
2008,08,26,03,34,10.80
2008,08,26,03,35,11.00
2008,08,26,03,36,11.20
2008,08,26,03,37,11.30
2008,08,26,03,38,11.40
2008,08,26,03,39,11.60
2008,08,26,03,40,11.60
2008,08,26,03,41,11.70
2008,08,26,03,42,11.80
2008,08,26,03,43,11.80
2008,08,26,03,44,11.80
2008,08,26,03,45,11.80
2008,08,26,03,46,11.80
2008,08,26,03,47,11.70
2008,08,26,03,48,11.70
2008,08,26,03,49,11.70
2008,08,26,03,50,11.70
2008,08,26,03,51,11.70
2008,08,26,03,52,11.70
2008,08,26,03,53,11.70
2008,08,26,03,54,11.70
2008,08,26,03,55,11.70
2008,08,26,03,56,11.60
2008,08,26,03,57,11.50
2008,08,26,03,58,11.50
2008,08,26,03,59,11.40
2008,08,26,04,00,11.40
2008,08,26,04,01,11.40
2008,08,26,04,02,11.40
2008,08,26,04,03,11.60
2008,08,26,04,04,11.80
2008,08,26,04,05,11.90
2008,08,26,04,07,11.80
2008,08,26,04,22,10.60
2008,08,26,04,28,10.40
2008,08,26,04,29,10.40
2008,08,26,04,30,10.40
2008,08,26,04,31,10.50
2008,08,26,04,32,10.50
2008,08,26,04,33,10.60
2008,08,26,04,34,10.60
2008,08,26,04,35,10.60
2008,08,26,04,36,10.60
2008,08,26,04,37,10.70
2008,08,26,04,38,10.70
2008,08,26,04,39,10.70
2008,08,26,04,40,10.70
2008,08,26,04,41,10.70
2008,08,26,04,42,10.70
2008,08,26,04,43,10.70
2008,08,26,04,44,10.70
2008,08,26,04,45,10.70
2008,08,26,04,46,10.70
2008,08,26,04,47,10.70
2008,08,26,04,48,10.70
2008,08,26,04,49,10.60
2008,08,26,04,50,10.60
2008,08,26,04,51,10.50
2008,08,26,04,52,10.40
2008,08,26,04,53,10.30
2008,08,26,04,54,10.30
2008,08,26,04,55,10.20
2008,08,26,04,56,10.10
2008,08,26,04,57,10.00
2008,08,26,04,58,9.90
2008,08,26,04,59,9.80
2008,08,26,05,00,9.70
2008,08,26,05,01,9.60
2008,08,26,05,02,9.60
2008,08,26,05,03,9.60
2008,08,26,05,04,9.60
2008,08,26,05,05,9.50
2008,08,26,05,06,9.50
2008,08,26,05,07,9.40
2008,08,26,05,08,9.40
2008,08,26,05,09,9.40
2008,08,26,05,10,9.40
2008,08,26,05,11,9.40
2008,08,26,05,12,9.40
2008,08,26,05,13,9.40
2008,08,26,05,14,9.30
2008,08,26,05,15,9.30
2008,08,26,05,16,9.30
2008,08,26,05,17,9.30
2008,08,26,05,18,9.30
2008,08,26,05,19,9.20
2008,08,26,05,20,9.20
2008,08,26,05,21,9.20
2008,08,26,05,22,9.10
2008,08,26,05,23,9.10
2008,08,26,05,24,9.10
2008,08,26,05,25,9.10
2008,08,26,05,26,9.10
2008,08,26,05,27,9.10
2008,08,26,05,28,9.10
2008,08,26,05,29,9.00
2008,08,26,05,30,9.00
2008,08,26,05,31,9.00
2008,08,26,05,32,8.90
2008,08,26,05,33,8.90
2008,08,26,05,34,8.80
2008,08,26,05,35,8.80
2008,08,26,05,36,8.80
2008,08,26,05,37,8.70
2008,08,26,05,38,8.70
2008,08,26,05,39,8.70
2008,08,26,05,40,8.70
2008,08,26,05,41,8.70
2008,08,26,05,42,8.70
2008,08,26,05,43,8.70
2008,08,26,05,44,8.70
2008,08,26,05,45,8.70
2008,08,26,05,46,8.70
2008,08,26,05,47,8.70
2008,08,26,05,48,8.60
2008,08,26,05,49,8.60
2008,08,26,05,50,8.50
2008,08,26,05,51,8.50
2008,08,26,05,52,8.50
2008,08,26,05,53,8.40
2008,08,26,05,54,8.40
2008,08,26,05,55,8.40
2008,08,26,05,56,8.30
2008,08,26,05,57,8.30
2008,08,26,05,58,8.30
2008,08,26,05,59,8.30
2008,08,26,06,00,8.30
2008,08,26,06,01,8.30
2008,08,26,06,02,8.30
2008,08,26,06,03,8.30
2008,08,26,06,04,8.30
2008,08,26,06,05,8.20
2008,08,26,06,06,8.20
2008,08,26,06,07,8.20
2008,08,26,06,08,8.20
2008,08,26,06,09,8.20
2008,08,26,06,10,8.20
2008,08,26,06,11,8.20
2008,08,26,06,12,8.20
2008,08,26,06,13,8.20
2008,08,26,06,14,8.10
2008,08,26,06,15,8.10
2008,08,26,06,16,8.10
2008,08,26,06,17,8.10
2008,08,26,06,18,8.00
2008,08,26,06,19,8.00
2008,08,26,06,20,8.00
2008,08,26,06,21,8.00
2008,08,26,06,22,8.10
2008,08,26,06,23,8.10
2008,08,26,06,24,8.10
2008,08,26,06,25,8.10
2008,08,26,06,26,8.20
2008,08,26,06,27,8.20
2008,08,26,06,28,8.20
2008,08,26,06,29,8.20
2008,08,26,06,30,8.20
2008,08,26,06,31,8.10
2008,08,26,06,32,8.10
2008,08,26,06,33,8.00
2008,08,26,06,34,8.00
2008,08,26,06,35,8.00
2008,08,26,06,36,7.90
2008,08,26,06,37,7.90
2008,08,26,06,38,7.90
2008,08,26,06,39,7.90
2008,08,26,06,40,7.90
2008,08,26,06,41,7.90
2008,08,26,06,42,7.90
2008,08,26,06,43,7.90
2008,08,26,06,44,7.80
2008,08,26,06,45,7.80
2008,08,26,06,46,7.80
2008,08,26,06,47,7.80
2008,08,26,06,48,7.80
2008,08,26,06,49,7.80
2008,08,26,06,50,7.80
2008,08,26,06,51,7.80
2008,08,26,06,52,7.80
2008,08,26,06,53,7.80
2008,08,26,06,54,7.70
2008,08,26,06,55,7.70
2008,08,26,06,56,7.70
2008,08,26,06,57,7.70
2008,08,26,06,58,7.70
2008,08,26,06,59,7.70
2008,08,26,07,00,7.70
2008,08,26,07,01,7.70
2008,08,26,07,02,7.70
2008,08,26,07,03,7.70
2008,08,26,07,04,7.80
2008,08,26,07,05,7.80
2008,08,26,07,06,7.80
2008,08,26,07,07,7.80
2008,08,26,07,08,7.80
2008,08,26,07,09,7.80
2008,08,26,07,10,7.80
2008,08,26,07,11,7.80
2008,08,26,07,12,7.80
2008,08,26,07,13,7.80
2008,08,26,07,14,7.80
2008,08,26,07,15,7.80
2008,08,26,07,16,7.80
2008,08,26,07,17,7.80
2008,08,26,07,18,7.80
2008,08,26,07,19,7.80
2008,08,26,07,20,7.80
2008,08,26,07,21,7.80
2008,08,26,07,22,7.80
2008,08,26,07,23,7.80
2008,08,26,07,24,7.80
2008,08,26,07,25,7.80
2008,08,26,07,26,7.90
2008,08,26,07,27,7.90
2008,08,26,07,28,8.00
2008,08,26,07,29,8.00
2008,08,26,07,30,8.10
2008,08,26,07,31,8.10
2008,08,26,07,32,8.10
2008,08,26,07,33,8.10
2008,08,26,07,34,8.20
2008,08,26,07,35,8.20
2008,08,26,07,36,8.20
2008,08,26,07,37,8.20
2008,08,26,07,38,8.20
2008,08,26,07,39,8.20
2008,08,26,07,40,8.30
2008,08,26,07,41,8.30
2008,08,26,07,42,8.30
2008,08,26,07,43,8.30
2008,08,26,07,44,8.40
2008,08,26,07,45,8.40
2008,08,26,07,46,8.40
2008,08,26,07,47,8.50
2008,08,26,07,48,8.50
2008,08,26,07,49,8.60
2008,08,26,07,50,8.60
2008,08,26,07,51,8.70
2008,08,26,07,52,8.80
2008,08,26,07,53,8.80
2008,08,26,07,54,8.90
2008,08,26,07,55,9.00
2008,08,26,07,56,9.00
2008,08,26,07,57,9.10
2008,08,26,07,58,9.20
2008,08,26,07,59,9.20
2008,08,26,08,00,9.20
2008,08,26,08,01,9.30
2008,08,26,08,02,9.30
2008,08,26,08,03,9.40
2008,08,26,08,04,9.50
2008,08,26,08,05,9.60
2008,08,26,08,06,9.70
2008,08,26,08,07,9.90
2008,08,26,08,08,10.10
2008,08,26,08,09,10.20
2008,08,26,08,10,10.30
2008,08,26,08,11,10.50
2008,08,26,08,12,10.70
2008,08,26,08,13,10.80
2008,08,26,08,14,11.00
2008,08,26,08,15,11.10
2008,08,26,08,16,11.30
2008,08,26,08,17,11.30
2008,08,26,08,18,11.50
2008,08,26,08,19,11.60
2008,08,26,08,20,11.70
2008,08,26,08,21,11.80
2008,08,26,08,22,11.80
2008,08,26,08,23,11.90
2008,08,26,08,24,11.90
2008,08,26,08,25,12.00
2008,08,26,08,26,12.10
2008,08,26,08,27,12.20
2008,08,26,08,28,12.30
2008,08,26,08,29,12.40
2008,08,26,08,30,12.50
2008,08,26,08,31,12.50
2008,08,26,08,32,12.60
2008,08,26,08,33,12.70
2008,08,26,08,34,12.70
2008,08,26,08,35,12.80
2008,08,26,08,36,12.80
2008,08,26,08,37,12.80
2008,08,26,08,38,12.80
2008,08,26,08,39,12.80
2008,08,26,08,40,12.90
2008,08,26,08,41,12.90
2008,08,26,08,42,12.90
2008,08,26,08,43,12.90
2008,08,26,08,44,12.90
2008,08,26,08,45,13.00
2008,08,26,08,46,13.00
2008,08,26,08,47,13.00
2008,08,26,08,48,13.10
2008,08,26,08,49,13.10
2008,08,26,08,50,13.10
2008,08,26,08,51,13.10
2008,08,26,08,52,13.20
2008,08,26,08,53,13.20
2008,08,26,08,54,13.20
2008,08,26,08,55,13.20
2008,08,26,08,56,13.20
2008,08,26,08,57,13.20
2008,08,26,08,58,13.20
2008,08,26,08,59,13.20
2008,08,26,09,00,13.20
2008,08,26,09,01,13.20
2008,08,26,09,02,13.30
2008,08,26,09,03,13.30
2008,08,26,09,04,13.30
2008,08,26,09,05,13.30
2008,08,26,09,06,13.30
2008,08,26,09,07,13.30
2008,08,26,09,08,13.30
2008,08,26,09,09,13.40
2008,08,26,09,10,13.40
2008,08,26,09,11,13.40
2008,08,26,09,12,13.40
2008,08,26,09,13,13.30
2008,08,26,09,14,13.30
2008,08,26,09,15,13.20
2008,08,26,09,16,13.20
2008,08,26,09,17,13.10
2008,08,26,09,18,13.10
2008,08,26,09,19,13.00
2008,08,26,09,20,13.00
2008,08,26,09,21,13.00
2008,08,26,09,22,13.00
2008,08,26,09,23,13.10
2008,08,26,09,24,13.10
2008,08,26,09,25,13.20
2008,08,26,09,26,13.20
2008,08,26,09,27,13.20
2008,08,26,09,28,13.30
2008,08,26,09,29,13.30
2008,08,26,09,30,13.30
2008,08,26,09,31,13.20
2008,08,26,09,32,13.20
2008,08,26,09,33,13.20
2008,08,26,09,34,13.30
2008,08,26,09,35,13.30
2008,08,26,09,36,13.30
2008,08,26,09,37,13.30
2008,08,26,09,38,13.30
2008,08,26,09,39,13.30
2008,08,26,09,40,13.30
2008,08,26,09,41,13.30
2008,08,26,09,42,13.40
2008,08,26,09,43,13.50
2008,08,26,09,44,13.60
2008,08,26,09,45,13.60
2008,08,26,09,46,13.70
2008,08,26,09,47,13.80
2008,08,26,09,48,13.80
2008,08,26,09,49,13.90
2008,08,26,09,50,13.90
2008,08,26,09,51,14.00
2008,08,26,09,52,14.10
2008,08,26,09,53,14.10
2008,08,26,09,54,14.20
2008,08,26,09,55,14.30
2008,08,26,09,56,14.30
2008,08,26,09,57,14.30
2008,08,26,09,58,14.20
2008,08,26,09,59,14.10
2008,08,26,10,00,14.00
2008,08,26,10,01,13.90
2008,08,26,10,02,13.90
2008,08,26,10,03,13.90
2008,08,26,10,04,14.00
2008,08,26,10,05,14.00
2008,08,26,10,06,14.10
2008,08,26,10,07,14.20
2008,08,26,10,08,14.30
2008,08,26,10,09,14.20
2008,08,26,10,10,14.20
2008,08,26,10,11,14.20
2008,08,26,10,12,14.20
2008,08,26,10,13,14.30
2008,08,26,10,14,14.30
2008,08,26,10,15,14.40
2008,08,26,10,16,14.30
2008,08,26,10,17,14.30
2008,08,26,10,18,14.20
2008,08,26,10,19,14.10
2008,08,26,10,20,14.00
2008,08,26,10,21,13.90
2008,08,26,10,22,13.90
2008,08,26,10,23,13.80
2008,08,26,10,24,13.80
2008,08,26,10,25,13.80
2008,08,26,10,26,13.90
2008,08,26,10,27,13.90
2008,08,26,10,28,13.90
2008,08,26,10,29,13.90
2008,08,26,10,30,14.00
2008,08,26,10,31,14.00
2008,08,26,10,32,14.00
2008,08,26,10,33,14.00
2008,08,26,10,34,14.00
2008,08,26,10,35,14.00
2008,08,26,10,36,14.00
2008,08,26,10,37,14.00
2008,08,26,10,38,14.00
2008,08,26,10,39,14.00
2008,08,26,10,40,14.10
2008,08,26,10,41,14.00
2008,08,26,10,42,13.90
2008,08,26,10,43,13.80
2008,08,26,10,44,13.80
2008,08,26,10,45,13.90
2008,08,26,10,46,14.00
2008,08,26,10,47,14.10
2008,08,26,10,48,14.10
2008,08,26,10,49,14.10
2008,08,26,10,50,14.10
2008,08,26,10,51,14.10
2008,08,26,10,52,14.20
2008,08,26,10,53,14.20
2008,08,26,10,54,14.30
2008,08,26,10,55,14.40
2008,08,26,10,56,14.40
2008,08,26,10,57,14.40
2008,08,26,10,58,14.40
2008,08,26,10,59,14.40
2008,08,26,11,00,14.40
2008,08,26,11,01,14.40
2008,08,26,11,02,14.30
2008,08,26,11,03,14.30
2008,08,26,11,04,14.40
2008,08,26,11,05,14.40
2008,08,26,11,06,14.40
2008,08,26,11,07,14.40
2008,08,26,11,08,14.50
2008,08,26,11,09,14.50
2008,08,26,11,10,14.60
2008,08,26,11,11,14.70
2008,08,26,11,12,14.70
2008,08,26,11,13,14.60
2008,08,26,11,14,14.60
2008,08,26,11,15,14.50
2008,08,26,11,16,14.50
2008,08,26,11,17,14.40
2008,08,26,11,18,14.50
2008,08,26,11,19,14.50
2008,08,26,11,20,14.60
2008,08,26,11,21,14.60
2008,08,26,11,22,14.60
2008,08,26,11,23,14.60
2008,08,26,11,24,14.70
2008,08,26,11,25,14.70
2008,08,26,11,26,14.70
2008,08,26,11,27,14.70
2008,08,26,11,28,14.60
2008,08,26,11,29,14.60
2008,08,26,11,30,14.60
2008,08,26,11,31,14.60
2008,08,26,11,32,14.60
2008,08,26,11,33,14.70
2008,08,26,11,34,14.70
2008,08,26,11,35,14.70
2008,08,26,11,36,14.80
2008,08,26,11,37,14.80
2008,08,26,11,38,15.00
2008,08,26,11,39,15.00
2008,08,26,11,40,15.00
2008,08,26,11,41,14.90
2008,08,26,11,42,14.90
2008,08,26,11,43,14.90
2008,08,26,11,44,14.90
2008,08,26,11,45,14.90
2008,08,26,11,46,14.90
2008,08,26,11,47,15.00
2008,08,26,11,48,15.00
2008,08,26,11,49,15.00
2008,08,26,11,50,15.00
2008,08,26,11,51,15.00
2008,08,26,11,52,15.00
2008,08,26,11,53,15.00
2008,08,26,11,54,15.00
2008,08,26,11,55,15.20
2008,08,26,11,56,15.30
2008,08,26,11,57,15.30
2008,08,26,11,58,15.30
2008,08,26,11,59,15.30
2008,08,26,12,00,15.30
2008,08,26,12,01,15.20
2008,08,26,12,02,15.20
2008,08,26,12,03,15.10
2008,08,26,12,04,15.00
2008,08,26,12,05,15.00
2008,08,26,12,06,15.00
2008,08,26,12,07,15.00
2008,08,26,12,08,15.00
2008,08,26,12,09,15.00
2008,08,26,12,10,15.00
2008,08,26,12,11,15.00
2008,08,26,12,12,15.00
2008,08,26,12,13,15.00
2008,08,26,12,14,15.00
2008,08,26,12,15,15.00
2008,08,26,12,16,15.00
2008,08,26,12,17,14.90
2008,08,26,12,18,14.80
2008,08,26,12,19,14.70
2008,08,26,12,20,14.70
2008,08,26,12,21,14.60
2008,08,26,12,22,14.60
2008,08,26,12,23,14.50
2008,08,26,12,24,14.50
2008,08,26,12,25,14.50
2008,08,26,12,26,14.40
2008,08,26,12,27,14.40
2008,08,26,12,28,14.40
2008,08,26,12,29,14.30
2008,08,26,12,30,14.30
2008,08,26,12,31,14.30
2008,08,26,12,32,14.30
2008,08,26,12,33,14.30
2008,08,26,12,34,14.40
2008,08,26,12,35,14.40
2008,08,26,12,36,14.40
2008,08,26,12,37,14.30
2008,08,26,12,38,14.30
2008,08,26,12,39,14.30
2008,08,26,12,40,14.30
2008,08,26,12,41,14.30
2008,08,26,12,42,14.30
2008,08,26,12,43,14.20
2008,08,26,12,44,14.20
2008,08,26,12,45,14.20
2008,08,26,12,46,14.20
2008,08,26,12,47,14.20
2008,08,26,12,48,14.20
2008,08,26,12,49,14.10
2008,08,26,12,50,14.10
2008,08,26,12,51,14.10
2008,08,26,12,52,14.10
2008,08,26,12,53,14.10
2008,08,26,12,54,14.10
2008,08,26,12,55,14.10
2008,08,26,12,56,14.10
2008,08,26,12,57,14.20
2008,08,26,12,58,14.20
2008,08,26,12,59,14.20
2008,08,26,13,00,14.20
2008,08,26,13,01,14.30
2008,08,26,13,02,14.40
2008,08,26,13,03,14.40
2008,08,26,13,04,14.40
2008,08,26,13,05,14.40
2008,08,26,13,06,14.40
2008,08,26,13,07,14.30
2008,08,26,13,08,14.30
2008,08,26,13,09,14.30
2008,08,26,13,10,14.30
2008,08,26,13,11,14.30
2008,08,26,13,12,14.30
2008,08,26,13,13,14.30
2008,08,26,13,14,14.40
2008,08,26,13,15,14.40
2008,08,26,13,16,14.50
2008,08,26,13,17,14.60
2008,08,26,13,18,14.70
2008,08,26,13,19,14.90
2008,08,26,13,20,15.00
2008,08,26,13,21,15.20
2008,08,26,13,22,15.30
2008,08,26,13,23,15.50
2008,08,26,13,24,15.50
2008,08,26,13,25,15.60
2008,08,26,13,26,15.60
2008,08,26,13,27,15.60
2008,08,26,13,28,15.60
2008,08,26,13,29,15.70
2008,08,26,13,30,15.70
2008,08,26,13,31,15.70
2008,08,26,13,32,15.70
2008,08,26,13,33,15.70
2008,08,26,13,34,15.80
2008,08,26,13,35,15.80
2008,08,26,13,36,15.80
2008,08,26,13,37,15.80
2008,08,26,13,38,15.80
2008,08,26,13,39,15.80
2008,08,26,13,40,15.80
2008,08,26,13,41,15.70
2008,08,26,13,42,15.70
2008,08,26,13,43,15.70
2008,08,26,13,44,15.70
2008,08,26,13,45,15.70
2008,08,26,13,46,15.70
2008,08,26,13,47,15.70
2008,08,26,13,48,15.80
2008,08,26,13,49,15.80
2008,08,26,13,50,15.80
2008,08,26,13,51,15.70
2008,08,26,13,52,15.70
2008,08,26,13,53,15.60
2008,08,26,13,54,15.60
2008,08,26,13,55,15.60
2008,08,26,13,56,15.70
2008,08,26,13,57,15.70
2008,08,26,13,58,15.70
2008,08,26,13,59,15.80
2008,08,26,14,00,15.80
2008,08,26,14,01,15.80
2008,08,26,14,02,15.80
2008,08,26,14,03,15.80
2008,08,26,14,04,15.80
2008,08,26,14,05,15.80
2008,08,26,14,06,15.80
2008,08,26,14,07,15.80
2008,08,26,14,08,15.80
2008,08,26,14,09,15.80
2008,08,26,14,10,15.90
2008,08,26,14,11,15.90
2008,08,26,14,12,15.90
2008,08,26,14,13,15.90
2008,08,26,14,14,15.90
2008,08,26,14,15,15.90
2008,08,26,14,16,16.00
2008,08,26,14,17,16.10
2008,08,26,14,18,16.10
2008,08,26,14,19,16.10
2008,08,26,14,20,16.10
2008,08,26,14,21,16.10
2008,08,26,14,22,16.20
2008,08,26,14,23,16.20
2008,08,26,14,24,16.20
2008,08,26,14,25,16.20
2008,08,26,14,26,16.20
2008,08,26,14,27,16.20
2008,08,26,14,28,16.20
2008,08,26,14,29,16.20
2008,08,26,14,30,16.20
2008,08,26,14,31,16.20
2008,08,26,14,32,16.30
2008,08,26,14,33,16.30
2008,08,26,14,34,16.40
2008,08,26,14,35,16.40
2008,08,26,14,36,16.40
2008,08,26,14,37,16.40
2008,08,26,14,38,16.40
2008,08,26,14,39,16.40
2008,08,26,14,40,16.40
2008,08,26,14,41,16.40
2008,08,26,14,42,16.40
2008,08,26,14,43,16.40
2008,08,26,14,44,16.40
2008,08,26,14,45,16.40
2008,08,26,14,46,16.40
2008,08,26,14,47,16.40
2008,08,26,14,48,16.30
2008,08,26,14,49,16.20
2008,08,26,14,50,16.20
2008,08,26,14,51,16.10
2008,08,26,14,52,16.10
2008,08,26,14,53,16.00
2008,08,26,14,54,15.90
2008,08,26,14,55,15.90
2008,08,26,14,56,15.80
2008,08,26,14,57,15.80
2008,08,26,14,58,15.80
2008,08,26,14,59,15.80
2008,08,26,15,00,15.70
2008,08,26,15,01,15.70
2008,08,26,15,02,15.70
2008,08,26,15,03,15.70
2008,08,26,15,04,15.60
2008,08,26,15,05,15.70
2008,08,26,15,06,15.80
2008,08,26,15,07,15.90
2008,08,26,15,08,16.00
2008,08,26,15,09,16.20
2008,08,26,15,10,16.30
2008,08,26,15,11,16.30
2008,08,26,15,12,16.30
2008,08,26,15,13,16.40
2008,08,26,15,14,16.40
2008,08,26,15,15,16.40
2008,08,26,15,16,16.40
2008,08,26,15,17,16.40
2008,08,26,15,18,16.40
2008,08,26,15,19,16.40
2008,08,26,15,20,16.40
2008,08,26,15,21,16.40
2008,08,26,15,22,16.50
2008,08,26,15,23,16.50
2008,08,26,15,24,16.50
2008,08,26,15,25,16.50
2008,08,26,15,26,16.60
2008,08,26,15,27,16.60
2008,08,26,15,28,16.50
2008,08,26,15,29,16.40
2008,08,26,15,30,16.30
2008,08,26,15,31,16.30
2008,08,26,15,32,16.20
2008,08,26,15,33,16.20
2008,08,26,15,34,16.10
2008,08,26,15,35,16.10
2008,08,26,15,36,16.10
2008,08,26,15,37,16.00
2008,08,26,15,38,16.00
2008,08,26,15,39,15.90
2008,08,26,15,40,15.90
2008,08,26,15,41,15.90
2008,08,26,15,42,15.90
2008,08,26,15,43,15.90
2008,08,26,15,44,15.80
2008,08,26,15,45,15.80
2008,08,26,15,46,15.80
2008,08,26,15,47,15.80
2008,08,26,15,48,15.80
2008,08,26,15,49,15.80
2008,08,26,15,50,15.80
2008,08,26,15,51,15.80
2008,08,26,15,52,15.70
2008,08,26,15,53,15.70
2008,08,26,15,54,15.70
2008,08,26,15,55,15.70
2008,08,26,15,56,15.70
2008,08,26,15,57,15.70
2008,08,26,15,58,15.70
2008,08,26,15,59,15.70
2008,08,26,16,00,15.70
2008,08,26,16,01,15.70
2008,08,26,16,02,15.70
2008,08,26,16,03,15.70
2008,08,26,16,04,15.70
2008,08,26,16,05,15.70
2008,08,26,16,06,15.70
2008,08,26,16,07,15.60
2008,08,26,16,08,15.60
2008,08,26,16,09,15.60
2008,08,26,16,10,15.60
2008,08,26,16,11,15.60
2008,08,26,16,12,15.60
2008,08,26,16,13,15.60
2008,08,26,16,14,15.60
2008,08,26,16,15,15.60
2008,08,26,16,16,15.60
2008,08,26,16,17,15.60
2008,08,26,16,18,15.60
2008,08,26,16,19,15.60
2008,08,26,16,20,15.60
2008,08,26,16,21,15.60
2008,08,26,16,22,15.60
2008,08,26,16,23,15.60
2008,08,26,16,24,15.60
2008,08,26,16,25,15.60
2008,08,26,16,26,15.60
2008,08,26,16,27,15.60
2008,08,26,16,28,15.60
2008,08,26,16,29,15.60
2008,08,26,16,30,15.60
2008,08,26,16,31,15.60
2008,08,26,16,32,15.60
2008,08,26,16,33,15.60
2008,08,26,16,34,15.60
2008,08,26,16,35,15.60
2008,08,26,16,36,15.60
2008,08,26,16,37,15.60
2008,08,26,16,38,15.60
2008,08,26,16,39,15.60
2008,08,26,16,40,15.60
2008,08,26,16,41,15.60
2008,08,26,16,42,15.60
2008,08,26,16,43,15.70
2008,08,26,16,44,15.60
2008,08,26,16,45,15.60
2008,08,26,16,46,15.60
2008,08,26,16,47,15.60
2008,08,26,16,48,15.60
2008,08,26,16,49,15.60
2008,08,26,16,50,15.60
2008,08,26,16,51,15.60
2008,08,26,16,52,15.60
2008,08,26,16,53,15.60
2008,08,26,16,54,15.60
2008,08,26,16,55,15.60
2008,08,26,16,56,15.60
2008,08,26,16,57,15.60
2008,08,26,16,58,15.60
2008,08,26,16,59,15.60
2008,08,26,17,00,15.60
2008,08,26,17,01,15.60
2008,08,26,17,02,15.60
2008,08,26,17,03,15.60
2008,08,26,17,04,15.60
2008,08,26,17,05,15.50
2008,08,26,17,06,15.50
2008,08,26,17,07,15.50
2008,08,26,17,08,15.50
2008,08,26,17,09,15.50
2008,08,26,17,10,15.50
2008,08,26,17,11,15.50
2008,08,26,17,12,15.40
2008,08,26,17,13,15.40
2008,08,26,17,14,15.40
2008,08,26,17,15,15.40
2008,08,26,17,16,15.40
2008,08,26,17,17,15.40
2008,08,26,17,18,15.40
2008,08,26,17,19,15.30
2008,08,26,17,20,15.30
2008,08,26,17,21,15.30
2008,08,26,17,22,15.30
2008,08,26,17,23,15.20
2008,08,26,17,24,15.20
2008,08,26,17,25,15.20
2008,08,26,17,26,15.10
2008,08,26,17,27,15.10
2008,08,26,17,28,15.00
2008,08,26,17,29,15.00
2008,08,26,17,30,15.00
2008,08,26,17,31,15.00
2008,08,26,17,32,15.00
2008,08,26,17,33,15.00
2008,08,26,17,34,15.00
2008,08,26,17,35,15.00
2008,08,26,17,36,15.00
2008,08,26,17,37,14.90
2008,08,26,17,38,14.90
2008,08,26,17,39,14.90
2008,08,26,17,40,14.80
2008,08,26,17,41,14.80
2008,08,26,17,42,14.70
2008,08,26,17,43,14.70
2008,08,26,17,44,14.70
2008,08,26,17,45,14.70
2008,08,26,17,46,14.60
2008,08,26,17,47,14.60
2008,08,26,17,48,14.60